Location: Sole Street
(51.3833°N, 0.3667°E)
Time: 01:14:24
(UTC+00:00)

Daily predictions for brighter satellites

Satellite Brightness Start Highest point End
(mag) Time Altitude Azimuth Time Altitude Azimuth Time Altitude Azimuth
H-2A R/B 4.5 00:02:39 10° N 00:06:28 39° WNW 00:08:45 21° WSW
Cosmos 2322 Rocket 3.7 00:01:48 10° WSW 00:06:51 33° NW 00:11:55 10° NNE
USA 306 4.1 00:07:12 25° SE 00:07:12 25° SE 00:10:26 10° E
Cosmos 1844 Rocket 4.4 00:03:41 10° WNW 00:07:24 19° W 00:09:35 15° SW
Lacrosse 5 4.0 00:07:00 11° SE 00:07:30 11° ESE 00:09:10 10° E
Cosmos 371 Rocket 4.2 00:06:52 26° SSE 00:08:47 37° ESE 00:13:14 10° NE
Cosmos 1461 3.5 00:05:19 10° NW 00:09:13 40° WSW 00:10:09 35° SSW
SL-16 R/B 4.4 00:04:26 10° ESE 00:09:23 26° NE 00:14:20 10° N
Cosmos 2322 3.7 00:07:23 24° SSW 00:10:59 83° WNW 00:16:47 10° NNE
USA 307 4.2 00:11:14 24° SE 00:11:14 24° SE 00:14:26 10° E
Cosmos 2333 Rocket 2.5 00:07:16 19° SW 00:11:25 65° NW 00:17:06 10° NNE
Cosmos 220 Rocket 3.8 00:11:12 37° SSW 00:12:48 80° ESE 00:17:02 10° NNE
ATLAS CENTAUR R/B 3.1 00:09:18 10° WNW 00:13:00 22° WSW 00:13:49 21° SW
Cosmos 1709 Rocket 4.4 00:09:05 10° N 00:15:07 55° ENE 00:19:32 18° SSE
ASTEX 1 3.3 00:10:42 10° N 00:15:38 89° W 00:18:02 31° S
SL-19 R/B 3.8 00:19:09 49° SW 00:19:29 53° WSW 00:22:21 10° NNW
Cosmos 1386 Rocket 4.4 00:14:35 10° N 00:20:38 88° W 00:24:14 26° S
NOSS 2-2 (C) 4.2 00:16:43 10° NW 00:21:34 69° SW 00:26:47 17° SSE
USA 267 3.4 00:17:02 19° SSE 00:21:35 51° SW 00:27:57 10° WNW
USA 229 DEB 3.9 00:17:11 10° NW 00:24:25 68° SW 00:30:40 17° SSE
USA 229 3.9 00:17:17 10° NW 00:24:31 68° SW 00:30:48 16° SSE
Cosmos 1674 Rocket 3.5 00:23:08 35° S 00:24:57 85° E 00:29:18 10° NNE
ATLAS 2AS CENTAUR R/B 4.5 00:18:56 10° W 00:25:52 36° NNW 00:32:31 10° NE
S3M 4.1 00:24:09 26° S 00:27:58 76° E 00:34:20 10° NNE
Cosmos 2219 Rocket 2.6 00:26:27 19° SW 00:30:29 60° NW 00:36:03 10° NNE
Cosmos 2221 Rocket 3.8 00:28:33 30° SSW 00:30:33 61° WNW 00:34:57 10° N
Cosmos 1553 Rocket 4.1 00:28:15 25° SSW 00:31:54 70° WNW 00:38:09 10° N
Cosmos 494 Rocket 4.2 00:29:33 10° NNW 00:34:32 52° WSW 00:36:50 29° SSW
Cosmos 2150 Rocket 4.1 00:32:32 29° S 00:35:06 64° ESE 00:40:13 10° NNE
Cosmos 1048 Rocket 4.4 00:30:11 10° NW 00:35:08 47° WSW 00:37:22 29° SSW
Meteor 1-16 Rocket 4.4 00:30:10 10° NNW 00:36:05 68° W 00:39:24 27° S
CZ-2D R/B 3.9 00:32:56 10° NE 00:37:04 22° E 00:40:53 11° SE
Cosmos 1707 4.2 00:35:39 20° WSW 00:37:29 28° WNW 00:40:53 10° N
MOZ.5/SAFIR/RUBIN 5/SL-8 4.4 00:34:54 18° SE 00:38:19 54° ENE 00:42:59 10° N
ERS-2 4.0 00:36:23 10° N 00:39:15 22° WNW 00:41:16 14° WSW
Cosmos 1455 Rocket 4.0 00:35:03 10° N 00:39:22 45° ENE 00:42:28 17° SE
Cosmos 1378 Rocket 3.6 00:37:53 32° SSW 00:39:53 74° W 00:44:21 10° N
USA 308 3.5 00:40:45 33° SSE 00:41:33 36° SE 00:45:23 10° ENE
Cosmos 1300 2.7 00:38:30 10° N 00:42:19 78° E 00:43:56 32° SSE
Okean 2 4.4 00:42:41 24° WSW 00:44:35 37° WNW 00:48:25 10° N
USA 290 3.0 00:43:29 30° WSW 00:44:38 43° WNW 00:47:46 10° NNE
Cosmos 1125 Rocket 3.4 00:43:32 28° SSW 00:46:18 81° ESE 00:51:33 10° NNE
NOSS 0 Rocket 3.9 00:45:01 25° SSW 00:48:49 78° ESE 00:55:05 10° NE
Cosmos 1238 Rocket 3.7 00:47:46 10° NW 00:50:12 23° W 00:50:31 23° WSW
NOSS 3-1 (A) 4.5 00:43:51 10° NW 00:50:51 44° WSW 00:56:19 21° S
SL-14 R/B 3.2 00:53:24 34° SSW 00:54:58 80° W 00:58:52 10° N
CZ-4C R/B 3.6 00:48:26 10° NW 00:55:00 36° WSW 00:59:25 22° SSW
ERBS 2.9 00:55:13 33° SE 00:55:13 33° SE 00:57:59 10° ENE
PSLV R/B 4.4 00:54:47 10° N 00:58:56 43° WNW 01:01:26 22° SW
Cosmos 1975 Rocket 3.7 00:56:40 23° SSE 00:59:09 49° E 01:03:29 10° NNE
Cosmos 2237 Rocket 2.2 00:56:44 26° SSW 01:00:04 73° ESE 01:05:47 10° NNE
Cosmos 1025 Rocket 3.9 01:00:08 21° SSE 01:02:39 42° E 01:06:43 10° NNE
Resurs 1-4 Rocket 3.2 00:58:24 10° NNE 01:03:13 35° E 01:07:01 15° SSE
USA 305 3.0 01:02:25 30° SSW 01:04:12 55° SSE 01:08:17 10° ENE
COSMOS 2428 3.4 00:59:51 16° WSW 01:04:18 50° NW 01:09:51 10° NNE
Cosmos 405 Rocket 3.5 01:03:21 25° WSW 01:04:58 39° WNW 01:08:36 10° N
Gblst 52 Del rocket 4.2 00:59:51 10° W 01:05:56 88° N 01:11:31 10° E
Cosmos 1745 Rocket 4.5 01:00:10 10° NNW 01:06:04 46° W 01:09:40 22° SSW
SME Rocket 3.4 01:03:28 20° SSE 01:06:20 81° ENE 01:11:54 10° NNW
Cosmos 1437 Rocket 3.8 01:04:30 10° NNW 01:07:48 29° W 01:08:52 25° SW
Cosmos 332 Rocket 3.9 01:08:19 26° S 01:10:57 67° ESE 01:15:43 10° NNE
Cosmos 2360 Rocket 4.3 01:07:27 10° W 01:11:46 22° NW 01:16:07 10° NNE
Cosmos 1943 Rocket 2.3 01:06:54 10° NNW 01:12:38 78° ENE 01:18:18 10° SE
Cosmos 1626 3.9 01:11:57 16° WSW 01:13:42 22° WNW 01:16:38 10° NNW
Lacrosse 5 rocket 3.0 01:14:37 16° SSE 01:15:38 18° SE 01:18:21 10° E
IDEFIX/ARIANE 42P 4.5 01:11:56 10° NE 01:15:59 22° E 01:20:01 10° SE
ADEOS II 3.7 01:12:34 10° NE 01:16:58 26° E 01:21:18 10° SSE
GP-B 3.1 01:12:33 10° N 01:17:00 75° W 01:19:29 26° SSW
Cosmos 2297 4.0 01:12:38 10° NNW 01:18:24 70° ENE 01:24:08 10° SE
Cosmos 2298 Rocket 4.4 01:15:02 21° SW 01:18:32 60° WNW 01:23:48 10° NNE
Cosmos 1953 3.6 01:15:30 10° NNW 01:18:56 28° W 01:20:22 22° SW
Cosmos 1867 4.3 01:14:21 12° WSW 01:19:17 51° NW 01:24:40 10° NE
Thor Agena Rocket 3.6 01:15:29 10° NNE 01:20:48 81° ESE 01:24:18 22° SSW
Cosmos 1544 Rocket 3.8 01:21:31 10° N 01:25:57 68° ENE 01:29:31 15° SSE
USA 215 3.7 01:20:52 10° ENE 01:27:20 65° NNW 01:33:48 10° W
Cosmos 2278 Rocket 3.2 01:23:20 10° NW 01:28:08 29° WSW 01:30:39 21° SW
NPP 4.2 01:31:55 10° NNE 01:37:14 54° E 01:41:35 15° S
MOS 1 Rocket 3.7 01:33:34 10° SSE 01:37:45 56° ENE 01:42:02 10° N
EO 1 Delta rocket 4.2 01:33:54 10° N 01:38:27 57° WNW 01:41:51 20° SSW
Cosmos 2369 Rocket 2.9 01:36:10 10° NNW 01:41:42 57° NE 01:47:12 10° SE
USA 306 2.8 01:42:53 16° WSW 01:46:11 84° SSE 01:50:23 10° ENE
SL-16 R/B 2.5 01:44:11 18° S 01:48:20 62° ESE 01:53:58 10° NE
Cosmos 371 Rocket 4.4 01:45:30 14° WSW 01:49:12 37° NW 01:53:43 10° NNE
Lacrosse 5 2.3 01:46:10 20° SSW 01:49:27 50° SE 01:54:24 10° ENE
USA 307 2.8 01:46:57 16° WSW 01:50:15 81° SSE 01:54:27 10° ENE
Meteor 1-28 Rocket 3.9 01:47:07 10° SSE 01:50:46 53° ENE 01:54:25 10° N
SL-16 R/B 2.5 01:46:09 10° SSE 01:52:22 80° WSW 01:58:40 10° NNW
Cosmos 1980 4.3 01:47:57 15° SW 01:52:31 51° NW 01:58:03 10° NNE
Cosmos 2074 Rocket 4.0 01:46:44 10° NNW 01:53:03 80° W 01:59:10 11° S
Cosmos 1269 Rocket 4.5 01:51:38 10° NW 01:56:38 43° WSW 02:00:38 15° S
Cosmos 2333 Rocket 4.4 01:52:48 10° WNW 01:56:51 20° NNW 02:00:56 10° NNE
Cosmos 304 Rocket 4.5 01:54:13 16° SW 01:57:48 45° WNW 02:02:27 10° NNE
Cosmos 2084 Rocket 3.1 01:56:07 20° SW 01:58:38 85° SE 02:02:27 10° NE
AQUA 4.1 01:56:03 10° NNE 02:00:49 65° ESE 02:04:57 13° S
Cosmos 1455 2.2 02:02:08 10° NNW 02:05:47 59° W 02:08:35 16° S
Cosmos 2184 Rocket 4.1 02:02:55 10° NNW 02:09:08 65° W 02:15:07 11° S
Cosmos 1610 Rocket 4.5 02:05:51 10° N 02:12:02 88° W 02:18:11 10° S
Meteor 1-24 Rocket 3.8 02:07:37 16° SSW 02:12:06 62° WNW 02:17:29 10° N
Cosmos 407 Rocket 4.4 02:07:26 10° NNW 02:12:40 52° ENE 02:17:49 10° SE
Cosmos 2228 3.3 02:08:45 10° N 02:13:08 68° ENE 02:17:27 10° SSE
Cosmos 1271 Rocket 2.6 02:10:02 10° NNW 02:13:52 84° W 02:17:44 10° S
COSMOS 2455 3.3 02:08:44 14° SSW 02:13:52 54° ESE 02:19:45 10° NE
Cosmos 2219 Rocket 4.4 02:11:50 10° WNW 02:15:38 18° NNW 02:19:28 10° NNE
CZ-2D R/B 2.3 02:12:15 10° N 02:17:37 67° WNW 02:22:12 14° SSW
Iridium 82 4.5 02:16:22 13° S 02:19:29 90° W 02:23:01 10° N
Cosmos 1140 Rocket 4.1 02:15:42 10° NNW 02:20:56 62° ENE 02:26:08 10° SE
USA 308 2.9 02:16:46 10° WSW 02:20:58 79° NNW 02:25:10 10° ENE
MSX 4.3 02:18:56 10° NNE 02:24:38 59° E 02:30:20 10° S
Cosmos 1536 Rocket 3.6 02:25:14 13° SSW 02:29:11 73° W 02:33:35 10° N
SAR-Lupe-2 3.6 02:25:52 10° N 02:29:27 68° WNW 02:32:32 13° SSW
Cosmos 292 Rocket 3.9 02:25:27 12° SSW 02:29:53 75° ESE 02:34:41 10° NNE
ERBS 2.9 02:27:30 10° W 02:30:28 47° NNW 02:33:27 10° NE
Genesis I 3.3 02:34:53 10° NW 02:38:59 90° NE 02:43:00 10° SE
Cosmos 1943 4.0 02:37:02 10° S 02:42:27 47° ESE 02:47:53 10° NE
Meteor 2-1 Rocket 4.3 02:37:03 10° NNW 02:42:53 88° ENE 02:48:33 10° SSE
Resurs 1-4 Rocket 2.8 02:38:12 10° N 02:43:08 42° WNW 02:48:03 10° SW
USA 305 3.2 02:39:37 10° W 02:43:47 65° N 02:47:57 10° ENE
DEBRIS 4.0 02:30:37 10° W 02:43:54 69° SSW 02:47:36 10° ESE
Cosmos 2237 Rocket 3.7 02:39:48 10° W 02:44:42 29° NW 02:49:38 10° NNE
Helios 1B rocket 3.9 02:42:31 10° NNE 02:46:14 33° E 02:49:56 10° SSE
Nadezhda 1 Rocket 4.2 02:40:03 10° SSW 02:46:21 66° WNW 02:52:37 10° N
Cosmos 1606 Rocket 3.5 02:44:37 10° NNW 02:49:04 80° W 02:53:26 10° S
Cosmos 1328 4.4 02:45:49 10° S 02:49:42 58° E 02:53:39 10° NNE
Lacrosse 5 rocket 1.3 02:50:12 10° SW 02:54:07 83° SE 02:58:16 10° ENE
Cosmos 1943 Rocket 3.5 02:51:36 10° NW 02:55:46 21° W 02:59:54 10° SSW
IDEFIX/ARIANE 42P 2.7 02:50:48 10° N 02:56:02 66° WNW 03:01:15 10° SSW
ADEOS II 2.4 02:51:49 10° N 02:56:58 56° WNW 03:02:05 10° SW
Gblst 52 Del rocket 4.1 02:51:55 10° WNW 02:57:39 72° SSW 03:03:06 10° ESE
Cosmos 2263 4.3 02:57:27 10° NW 03:03:00 57° WSW 03:08:35 10° S
Cosmos 1703 3.7 03:00:18 10° SSW 03:04:06 46° WNW 03:07:55 10° N
COSMOS 2441 4.4 03:00:21 10° NNE 03:05:15 82° WNW 03:10:05 10° SSW
Helios 1A 4.0 03:02:49 10° SSW 03:06:31 29° W 03:10:16 10° NW
EO 1 Del DPAF 3.7 03:03:14 10° N 03:06:34 40° WNW 03:09:52 10° SW
IRS-1D 3.7 03:02:46 10° NNE 03:08:09 83° WNW 03:13:26 10° SSW
USA 215 4.0 03:03:36 10° E 03:09:57 56° N 03:16:19 10° WNW
Cosmos 2366 rocket 4.0 03:03:52 10° N 03:10:04 88° W 03:16:16 10° S
BREEZE-M DEB (TANK) 3.3 03:01:46 10° W 03:10:26 73° S 03:13:27 10° E
Cosmos 2251 Rocket 4.1 03:06:04 10° NW 03:10:52 37° WSW 03:15:40 10° S
Cosmos 2341 Rocket 4.2 03:07:21 10° NNW 03:13:40 62° W 03:19:56 10° S
